www.pogodaiklimat.ru

Погода и климат >> Архив погоды >> Канада >> Dubawnt Lake


ПОГОДА в Dubawnt Lake

  • Прогноз погоды в Dubawnt Lake
  • Монитор погоды в Dubawnt Lake
  • Климат города

АРХИВ ПОГОДЫ в Dubawnt Lake

Время (UTC), дата Ветер
(напр.,м/с)
 
Видим.   Явления Облачность Т
(С)
Тd
(С)
f
(%)
Тe
(С)
Тes
(С)
Комфортность P
(гПа)
Po
(гПа)
Тmin
(С)
Tmax
(С)
R
(мм)
R24
(мм)
S
(см)
03 16.10 Ю 6 4800 м слаб. дождь {осадки} 10/10 100 м
[]
+0.5 +0.1 97 -6 -6 1005.5 943.2
06 16.10 ЮЗ 6 16 км {осадки} 10/10 600 м
[]
+2.1 +1.4 95 -4 -4 1001.8 939.8 -0.7 +2.1 2 3
09 16.10 ЮЗ 4 16 км дождь {осадки} 10/10 1000 м
[]
+2.6 +2.2 97 -2 -2 999.2 937.5
12 16.10 ЮЗ 5 16 км {осадки} 10/10 1000 м
[]
+4.0 +3.4 96 -1 -1 997.0 935.5 +0.3 +2.1 1
15 16.10 СЗ 7 16 км слаб. дождь {осадки} 10/10 300 м
[]
+3.2 +2.2 93 -3 -3 999.5 937.8
18 16.10 СЗ 6 16 км {осадки} 10/10 300 м
[]
+3.5 +1.7 88 -2 -2 1003.7 941.8 -0.2 +4.5 0.8
21 16.10 СЗ 5 16 км 10/10 300 м
[]
+3.8 +1.0 82 -1 -1 1005.8 943.8
00 17.10 С 1 16 км 10/10 600 м
[]
+3.1 +1.2 87 +1 +1 1006.9 944.9 +2.1 +4.8
03 17.10 В 3 16 км ясно +1.0 +0.4 96 -3 -3 1006.4 944.3
06 17.10 В 3 16 км 10/10 600 м
[]
+1.3 +0.7 96 -3 -3 1005.7 943.7 +0.2 +4.8 161
09 17.10 ЮВ 2 16 км 10/0
[]
+1.7 +1.0 95 -2 -2 1004.9 942.9
12 17.10 ЮВ 2 16 км 10/0 2000 м
[]
+2.2 +1.2 93 -1 -1 1003.6 941.7 +0.2 +4.8
15 17.10 В 2 16 км 10/10 1000 м
[]
+2.9 +1.9 93 0 0 1001.6 939.8
18 17.10 В 4 16 км ясно +4.3 +2.3 87 -0 +1 998.2 936.7 +0.2 +4.3
21 17.10 ЮВ 3 11 км слаб. дождь 10/10 1000 м
[]
+4.8 +3.8 93 +1 +1 994.9 933.6
00 18.10 В 5 9000 м слаб. дождь {осадки} 10/10 100 м
[]
+3.9 +3.6 98 -1 -1 991.1 930.0 +0.9 +5.6 5
03 18.10 В 5 12 км слаб. дождь {осадки} 10/10 100 м
[]
+3.4 +3.1 98 -2 -2 986.3 925.5
06 18.10 В 6 9000 м осадки 10/10 100 м
[]
+1.9 +1.5 97 -4 -4 982.3 921.8 +0.9 +5.6 7 6
09 18.10 С 3 1600 м слаб. снег {осадки} н/о +0.3 +0.2 99 -5 -5 982.2 921.6
12 18.10 СЗ 6 1200 м слаб. снег {осадки} н/о +0.1 -0.0 99 -7 -7 985.3 924.5 +0.1 +5.6 9
15 18.10 СЗ 7 9000 м слаб. снег {осадки} 10/10 300 м
[]
-2.7 -3.8 92 -11 -11 989.3 928.0
18 18.10 С 7 2400 м слаб. снег 10/10 300 м
[]
-1.5 -2.5 93 -9 -9 994.5 932.9 -2.7 +1.9 3
21 18.10 С 6 12 км {осадки} 9/9 300 м
[]
-1.0 -2.2 92 -8 -8 1000.1 938.1
00 19.10 СЗ 4 16 км 5/5 600 м
[]
-2.4 -3.5 92 -8 -8 1004.7 942.3 -2.7 +0.1
03 19.10 С 2 16 км 10/10 300 м
[]
-2.5 -3.9 90 -7 -7 1006.0 943.3
06 19.10 В 3 16 км 10/10 300 м
[]
-2.8 -3.6 94 -8 -8 1006.4 943.8 -2.9 +1.9 141
09 19.10 В 4 16 км 10/10 300 м
[]
-3.0 -3.8 94 -9 -9 1005.3 942.8
12 19.10 ЮВ 6 16 км слаб. снег 10/10 200 м
[]
-3.1 -3.8 95 -11 -11 1004.1 941.5 -3.5 +1.9
15 19.10 ЮВ 5 16 км 10/10 300 м
[]
-2.3 -3.3 93 -9 -9 1002.2 939.8
18 19.10 ЮВ 4 16 км 10/10 300 м
[]
-1.4 -2.6 92 -7 -7 1001.8 939.5 -3.5 -1.4
21 19.10 ЮВ 5 14 км слаб. снег 10/10 600 м
[]
-0.4 -1.7 91 -7 -7 1002.0 939.7
00 20.10 ЮВ 3 16 км 10/10 300 м
[]
-0.3 -1.0 95 -5 -5 1002.6 940.3 -3.5 -0.2
03 20.10 ЮВ 4 16 км 10/10 200 м
[]
-0.9 -1.6 95 -6 -6 1003.1 940.7
06 20.10 ЮВ 3 16 км 10/10 100 м
[]
-1.6 -1.9 98 -7 -7 1003.4 941.0 -3.5 0.0 15
09 20.10 ЮВ 3 1600 м дымка н/о -1.8 -1.8 100 -7 -7 1003.0 940.7
12 20.10 ЮВ 5 16 км 10/10 50 м
[]
-1.1 -1.1 100 -8 -8 1002.7 940.5 -2.0 0.0
15 20.10 В 6 11 км 10/10 50 м
[]
-0.3 -0.4 99 -7 -7 1001.5 939.4
18 20.10 В 6 16 км 10/10 200 м
[]
+0.7 +0.3 97 -6 -6 999.6 937.6 -2.0 +0.7
21 20.10 В 6 16 км 10/10 200 м
[]
+0.9 +0.3 96 -6 -6 998.1 936.2
00 21.10 В 4 16 км 10/10 100 м
[]
+0.7 +0.4 98 -5 -5 996.8 935.0 -2.0 +1.1
03 21.10 В 3 700 м туман н/о +0.6 +0.5 99 -4 -4 997.1 935.3
06 21.10 СВ 2 300 м туман н/о +0.6 +0.6 100 -3 -3 997.4 935.7 -2.0 +1.1 22
09 21.10 ЮВ 1 300 м туман н/о +0.6 +0.6 100 -0 -0 997.3 935.6
12 21.10 СЗ 1 16 км 10/10 300 м
[]
+0.8 +0.8 100 0 0 998.4 936.6 +0.6 +1.1
15 21.10 СЗ 3 14 км 10/10 100 м
[]
+1.5 +1.5 100 -3 -3 999.6 937.8
18 21.10 СЗ 4 16 км 10/10 100 м
[]
+1.5 +1.5 100 -4 -4 1000.6 938.7 +0.6 +1.5
21 21.10 СЗ 5 6000 м дымка 10/10 100 м
[]
+1.8 +1.7 99 -4 -4 1001.0 939.1
00 22.10 СЗ 3 16 км 10/10 300 м
[]
+2.3 +2.0 98 -2 -2 1003.1 941.1 +0.6 +2.4
03 22.10 СЗ 4 16 км 10/10 600 м
[]
+2.3 +1.0 91 -2 -2 1003.5 941.5
06 22.10 СЗ 4 16 км 10/10 300 м
[]
+2.2 +0.1 86 -2 -2 1003.0 941.1 +0.6 +2.4
09 22.10 СЗ 2 16 км 10/10 600 м
[]
+1.6 +0.7 94 -1 -1 1002.4 940.5
12 22.10 С 3 16 км 10/10 300 м
[]
+1.2 -0.3 90 -3 -3 1001.4 939.5 +1.2 +2.4
15 22.10 СЗ 4 16 км 10/10 300 м
[]
+1.0 -1.8 82 -4 -4 1000.7 938.9
18 22.10 СЗ 4 16 км 10/10 600 м
[]
+1.3 -2.1 78 -3 -3 1000.3 938.5 +0.8 +2.2
21 22.10 СЗ 3 14 км слаб. дождь 10/10 300 м
[]
+1.0 -1.0 86 -4 -4 1001.2 939.3

 

Местоположение метеостанции Dubawnt Lake (Канада): широта 63.23 долгота -101.70 высота над уровнем моря 237 м.

В архиве по умолчанию представлена погода в Dubawnt Lake за последнюю неделю. Архивные данные за месяц целиком и за предыдущие месяцы, начиная с января 2011 года, Вы можете получить, выбрав интересующий диапазон дат из раскрывающегося списка и нажав кнопку "Ввод!".

Внимание! Время в таблицах - всемирное. Для получения местного времени необходимо прибавить поправку, которая в Dubawnt Lake равна -6 ч.

Смотрите также архив погоды в соседних городах и на ближайших метеорологических станциях:

Погода в Hanbury River ARS (Канада) (176 км)
Погода в Robertson Lake (Канада) (211 км)
Погода в Baker Lake Airport (Канада) (302 км)
Погода в Baker Lake Climate (Канада) (305 км)
Погода в Fort Reliance (aut) (Канада) (379 км)
Погода в Porter Lake (Канада) (387 км)
Погода в Back River MAPS (Канада) (402 км)
Погода в Lustel Ke A (Канада) (461 км)
Погода в Arviat Climate (Канада) (462 км)
Погода в Arviat (Канада) (462 км)

Пояснения к столбцам:

Ветер - указаны скорость ветра в м/с - средняя за 10 мин, порывы в срок и между сроками (в фигурных скобках) и направление, откуда дует ветер: С - северный, СВ - северо-восточный, В - восточный, ЮВ - юго-восточный, Ю - южный, ЮЗ - юго-западный, З - западный, СЗ - северо-западный.
Видимость - горизонтальная дальность видимости в метрах или километрах. При видимости от 1 до 10 км при отсутствии осадков обычно наблюдается дымка, при ухудшении видимости до 1 км и менее - туман. В сухую погоду видимость может ухудшаться дымом, пылью или мглою.
Явления - указаны атмосферные явления, наблюдавшиеся в срок или в последний час перед сроком; фигурными скобками обозначены явления, наблюдавшиеся между сроками (за 1-3 часа до срока); квадратными скобками обозначены град или гололедные отложения с указанием их диаметра в мм.
Облачность - указаны через наклонную черту общая и нижняя облачность в баллах и высота нижней границы облаков в метрах; квадратными скобками обозначены формы облаков: Ci - перистые, Cs - перисто-слоистые, Cc - перисто-кучевые, Ac - высококучевые, As - высокослоистые, Sc - слоисто-кучевые, Ns - слоисто-дождевые, Cu - кучевые, Cb - кучево-дождевые. Подробнее классификацию облаков см. в Атласе облаков (PDF).
T - Температура воздуха - температура, измеренная на высоте 2 м над землей.
Td - Температура точки росы - температура, при понижении до которой содержащийся в воздухе водяной пар достигнет насыщения.
f - Относительная влажность воздуха - влажноcть воздуха, измеренная на высоте 2 м над землей.
Te - Эффективная температура - температура, которую ощущает одетый по сезону человек в тени. Характеристика душности погоды. При расчете учитывается влияние влажности воздуха и скорости ветра на теплоощущения человека.
Tes - Эффективная температура на солнце - температура, которую ощущает человек, с поправкой на солнечный нагрев. Характеристика знойности погоды. Зависит от высоты солнца над горизонтом, облачности и скорости ветра. Ночью, в пасмурную погоду, а также при ветре 12 м/с и более поправка равна нулю.
P - Атмосферное давление - приведенное к уровню моря атмосферное давление.
Po - Атмосферное давление - измеренное на уровне метеостанции атмосферное давление.
Tmin - Минимальная температура - минимум температуры воздуха на высоте 2 м над землей.
Tmax - Максимальная температура - максимум температуры воздуха на высоте 2 м над землей.
R - Количество осадков - Количество выпавших осадков за период времени, мм. При наведении курсора мыши на число - период времени, за который выпало указанное количество осадков.
R24 - Количество осадков - Количество выпавших осадков за 24 часа, мм.
S - Снежный покров - Высота снежного покрова, см. При наведении курсора мыши на число - состояние снежного покрова и степень покрытия местности в баллах.